カタログに戻る

SL-12 R/B(2)

運用中HEO
NORAD 24815·ROCKET BODY·🇷🇺 Russia

打ち上げ May 24, 1997 から Baikonur Cosmodrome

Loading…

次のパス (今後24時間)

TLE

最新Source: Space-Track

元期: Sep 13, 2026, 09:16 UTC

1 24815U 97026D   26256.38657459 -.00000110  00000-0  00000-0 0  9995
2 24815  19.2588 359.8479 5343700  96.9705 334.2122  1.89869082203225

AllMySatでSL-12 R/B(2)をリアルタイム追跡

Download on the App Store